Regional Weather Roundup
Issued by NWS

Home | Current Version | Previous Version | Graphics & Text | Print | Product List | Glossary On
Versions: 1 2 3 4 5 6 7 8 9 10 11 12 13 14 15 16 17 18 19 20 21 22 23 24 25 26 27 28 29 30 31 32 33 34 35 36 37 38 39 40 41 42 43 44 45 46 47 48 49 50
571
ASUS43 KOAX 231802
RWRNE

WEATHER ROUNDUP FOR NEBRASKA
NATIONAL WEATHER SERVICE OMAHA NE
1200 PM CST MON JAN 23 2017

NOTES: SATELLITE DATA IS BEING USED TO AUGMENT CLOUD COVER ABOVE
       12000 FEET.
       "FAIR" INDICATES FEW OR NO CLOUDS BELOW 12,000 FEET WITH NO
       SIGNIFICANT WEATHER AND/OR OBSTRUCTIONS TO VISIBILITY.

  * THESE STATIONS DO NOT REPORT WEATHER SUCH AS RAIN...SNOW OR FOG.

NEZ001>004-019>022-054>056-231900-
NEBRASKA PANHANDLE

CITY           SKY/WX    TMP DP  RH WIND       PRES   REMARKS
SCOTTSBLUFF    MOSUNNY   39  26  59 CALM      29.62F
6HR MIN TEMP:  24; 6HR MAX TEMP:  39;

ALLIANCE       MOSUNNY   40  25  55 S5        29.61F
6HR MIN TEMP:  27; 6HR MAX TEMP:  41;

CHADRON        CLOUDY    39  25  57 SW3       29.63S
6HR MIN TEMP:  24; 6HR MAX TEMP:  39;

SIDNEY         SUNNY     43  24  47 NW8       29.61F
6HR MIN TEMP:  26; 6HR MAX TEMP:  43;

$$

NEZ057>060-069>072-079>082-231900-
SOUTHWEST NEBRASKA

CITY           SKY/WX    TMP DP  RH WIND       PRES   REMARKS
NORTH PLATTE   PTSUNNY   42  31  64 E9        29.69F
6HR MIN TEMP:  23; 6HR MAX TEMP:  42;

IMPERIAL       SUNNY     42  27  55 S8        29.64F
6HR MIN TEMP:  26; 6HR MAX TEMP:  42;

LEXINGTON      CLOUDY    41  32  71 SE10      29.74F
MCCOOK         SUNNY     47  31  53 S16       29.68F
6HR MIN TEMP:  22; 6HR MAX TEMP:  48;

OGALLALA       CLOUDY    43  29  58 S9        29.64F
$$

NEZ005>010-023>029-035>040-094-231900-
NORTH CENTRAL NEBRASKA

CITY           SKY/WX    TMP DP  RH WIND       PRES   REMARKS
VALENTINE      CLOUDY    34  29  82 NE7       29.70F WCI  28
6HR MIN TEMP:  19; 6HR MAX TEMP:  34;

AINSWORTH      CLOUDY    35  29  80 S12       29.72F WCI  27
BROKEN BOW     CLOUDY    36  32  85 E8        29.73F WCI  30
6HR MIN TEMP:  27; 6HR MAX TEMP:  36;

O`NEILL        CLOUDY    30  30 100 SE7       29.79F WCI  23
ORD            CLOUDY    31  28  89 SE7       29.78F WCI  24
6HR MIN TEMP:  21; 6HR MAX TEMP:  32;

THEDFORD       CLOUDY    39  30  71 SE10      29.69F WCI  32
$$

NEZ041-046>049-061>064-073>077-083>087-231900-
SOUTH CENTRAL NEBRASKA

CITY           SKY/WX    TMP DP  RH WIND       PRES   REMARKS
GRAND ISLAND   CLOUDY    31  31 100 E7        29.81F FOG     WCI  24
6HR MIN TEMP:  24; 6HR MAX TEMP:  31;

AURORA         FOG       31  31 100 E7        29.81F VSB 1/4 WCI  24
HASTINGS       MOSUNNY   34  31  88 SE9       29.80F WCI  27
6HR MIN TEMP:  28; 6HR MAX TEMP:  35;

HEBRON         CLOUDY    33  33 100 E8        29.83F FOG     WCI  26
HOLDREGE       SUNNY     43  32  65 SE13      29.75F
KEARNEY *      MOSUNNY   39  32  75 E10       29.77F WCI  32
YORK           CLOUDY    32  32 100 E7        29.84F FOG     WCI  26
$$

NEZ011>018-030>034-042>045-231900-
NORTHEAST NEBRASKA

CITY           SKY/WX    TMP DP  RH WIND       PRES   REMARKS
NORFOLK        CLOUDY    31  26  82 S6        29.84F WCI  25
6HR MIN TEMP:  28; 6HR MAX TEMP:  31;

ALBION         CLOUDY    29  27  90 CALM      29.82F FOG
BLAIR          CLOUDY    33  29  83 CALM      29.86F
FREMONT        CLOUDY    35  30  79 CALM      29.87F
TEKAMAH        CLOUDY    33  27  78 E3        29.89F
6HR MIN TEMP:  32; 6HR MAX TEMP:  34;

WAYNE          CLOUDY    32  28  85 CALM      29.84F
$$

NEZ050>053-065>068-078-088>093-231900-
SOUTHEAST NEBRASKA

CITY           SKY/WX    TMP DP  RH WIND       PRES   REMARKS
LINCOLN        CLOUDY    35  30  82 E5        29.88F WCI  31
6HR MIN TEMP:  30; 6HR MAX TEMP:  35;

OMAHA EPPLEY   CLOUDY    34  27  75 NE6       29.89F WCI  29
6HR MIN TEMP:  32; 6HR MAX TEMP:  35;

BEATRICE       CLOUDY    32  32 100 SE5       29.87F FOG     WCI  27
FALLS CITY     CLOUDY    34  29  82 CALM      29.90F
6HR MIN TEMP:  30; 6HR MAX TEMP:  35;

NEBRASKA CITY  CLOUDY    33  28  83 E3        29.89F
PLATTSMOUTH    CLOUDY    33  27  77 CALM      29.89F
$$

NEZ044-045-051>053-067-231900-
OMAHA AREA

CITY           SKY/WX    TMP DP  RH WIND       PRES   REMARKS
OMAHA EPPLEY   CLOUDY    34  27  75 NE6       29.89F WCI  29
6HR MIN TEMP:  32; 6HR MAX TEMP:  35;

BLAIR          CLOUDY    33  29  83 CALM      29.86F
FREMONT        CLOUDY    35  30  79 CALM      29.87F
MILLARD        CLOUDY    37  30  75 CALM      29.88F
OFFUTT AFB     CLOUDY    35  31  88 E5        29.88F WCI  30
PLATTSMOUTH    CLOUDY    33  27  77 CALM      29.89F
WAHOO          MOCLDY    33  28  82 SE3       29.87F
$$




USA.gov is the U.S. government's official web portal to all federal, state and local government web resources and services.